Location: El Bakhil
(32.7726°N, 5.5387°W)
Time: 15:36:42
(UTC+00:00)

AO-73 - Visible Passes

Search period start: 03 August 2021 00:00
Search period end: 13 August 2021 00:00
Orbit: 581 x 662 km, 97.6° (Epoch: 03 August)

Date Brightness Start Highest point End Pass type
(mag) Time Alt. Az. Time Alt. Az. Time Alt. Az.
03 Aug ? 04:02:32 10° ENE 04:05:06 15° E 04:07:41 10° SE visible
04 Aug ? 04:19:18 10° NE 04:22:57 24° E 04:26:36 10° SSE visible
05 Aug ? 04:36:32 10° NNE 04:40:45 38° E 04:44:58 10° SSE visible
06 Aug ? 04:54:00 10° NNE 04:58:30 64° E 05:03:00 10° S visible
07 Aug ? 05:11:41 10° N 05:16:13 79° WNW 05:20:45 10° SSW visible
08 Aug ? 03:55:39 10° ENE 03:57:34 12° E 03:59:28 10° ESE visible
09 Aug ? 04:12:03 10° NE 04:15:24 20° E 04:18:46 10° SE visible
10 Aug ? 04:29:09 10° NNE 04:33:14 32° E 04:37:17 10° SSE visible
11 Aug ? 04:46:33 10° NNE 04:50:59 52° E 04:55:26 10° S visible
12 Aug ? 05:04:09 10° NNE 05:08:43 86° E 05:13:17 10° SSW visible
